Amory, MS

4:42 PM CST on December 03, 2016 (GMT -0600)
Aberdeen / Amory

Weather History for KM40 - October, 2013

Change the Weather History Date:

Sunday, October 20, 2013

  Actual Average (KCBM) Record (KCBM)
Temperature  
Mean Temperature 54 °F -  
Max Temperature 73 °F 73 °F 84 °F (2005)
Min Temperature 35 °F 50 °F 36 °F (2011)
Degree Days  
Heating Degree Days 11    
Growing Degree Days 4 (Base 50)    
Moisture  
Dew Point 37 °F    
Average Humidity 58    
Maximum Humidity 65    
Minimum Humidity 53    
Precipitation  
Precipitation 0.00 in - - ()
Sea Level Pressure  
Sea Level Pressure 30.08 in    
Wind  
Wind Speed 0 mph (NNW)    
Max Wind Speed 5 mph    
Max Gust Speed -    
Visibility 5 miles    
Events      
Averages and records for this station are not official NWS values.
T = Trace of Precipitation, MM = Missing Value Source: NWS Daily Summary

Daily Weather History Graph

Daily Weather History Graph

Search for Another Location

Airport or City:

Trip Planner

Search our weather history database for the weather conditions in past years. The results will help you decide how hot, cold, wet, or windy it might be!

Date:

Astronomy

Oct. 20, 2013 Rise Set
Actual Time 7:03 AM CDT 6:13 PM CDT
Civil Twilight 6:37 AM CDT 6:38 PM CDT
Nautical Twilight 6:08 AM CDT 7:08 PM CDT
Astronomical Twilight 5:39 AM CDT 7:37 PM CDT
Moon 7:27 PM CDT (10/20) 8:35 AM CDT (10/20)
Length of Visible Light 12h 01m
Length of Day
11h 10m
Full, 97% of the Moon is Illuminated
Oct 20
Full
Oct 26
Last Quarter
Nov 3
New
Nov 9
First Quarter
Nov 17
Full

Hourly Weather History & Observations

Time (CDT) Temp. Windchill Dew Point Humidity Pressure Visibility Wind Dir Wind Speed Gust Speed Precip Events Conditions
12:15 AM 42.8 °F - 30.2 °F 61% 30.09 in 1.8 mi Calm Calm - N/A   Haze
12:35 AM 42.8 °F - 28.4 °F 57% 30.09 in 0.2 mi Calm Calm - N/A   Haze
12:55 AM 42.8 °F - 28.4 °F 57% 30.09 in 1.0 mi Calm Calm - N/A   Haze
1:15 AM 41.0 °F - 28.4 °F 61% 30.09 in 0.2 mi Calm Calm - N/A   Haze
1:35 AM 41.0 °F - 28.4 °F 61% 30.09 in 0.2 mi Calm Calm - N/A   Haze
1:55 AM 41.0 °F - 28.4 °F 61% 30.09 in 0.2 mi Calm Calm - N/A   Haze
2:15 AM 39.2 °F - 28.4 °F 65% 30.09 in 0.8 mi Calm Calm - N/A   Haze
2:35 AM 39.2 °F - 26.6 °F 61% 30.10 in 1.0 mi Calm Calm - N/A   Haze
2:55 AM 39.2 °F - 26.6 °F 61% 30.09 in 0.2 mi Calm Calm - N/A   Haze
3:15 AM 39.2 °F - 26.6 °F 61% 30.09 in 0.5 mi Calm Calm - N/A   Haze
3:35 AM 37.4 °F - 26.6 °F 65% 30.09 in 0.2 mi Calm Calm - N/A   Haze
3:55 AM 39.2 °F - 26.6 °F 61% 30.09 in 1.0 mi Calm Calm - N/A   Haze
4:15 AM 37.4 °F - 26.6 °F 65% 30.09 in 1.5 mi Calm Calm - N/A   Haze
4:35 AM 37.4 °F - 24.8 °F 60% 30.09 in 0.5 mi Calm Calm - N/A   Haze
4:55 AM 37.4 °F - 24.8 °F 60% 30.10 in 0.2 mi Calm Calm - N/A   Haze
5:15 AM 37.4 °F - 24.8 °F 60% 30.10 in 0.2 mi Calm Calm - N/A   Haze
5:35 AM 37.4 °F - 24.8 °F 60% 30.10 in 0.2 mi Calm Calm - N/A   Haze
5:55 AM 37.4 °F - 24.8 °F 60% 30.11 in 0.2 mi Calm Calm - N/A   Haze
6:15 AM 35.6 °F - 23.0 °F 60% 30.11 in 0.5 mi Calm Calm - N/A   Haze
6:35 AM 35.6 °F - 23.0 °F 60% 30.11 in 0.2 mi Calm Calm - N/A   Haze
6:55 AM 35.6 °F - 23.0 °F 60% 30.11 in 0.5 mi Calm Calm - N/A   Haze
7:15 AM 35.6 °F - 23.0 °F 60% 30.12 in 0.2 mi Calm Calm - N/A   Haze
7:35 AM 37.4 °F - 23.0 °F 56% 30.12 in 0.2 mi Calm Calm - N/A   Haze
7:55 AM 39.2 °F - 26.6 °F 61% 30.12 in 0.2 mi Calm Calm - N/A   Haze
8:15 AM 42.8 °F - 28.4 °F 57% 30.12 in 0.2 mi Calm Calm - N/A   Haze
8:35 AM 44.6 °F 43.1 °F 32.0 °F 61% 30.13 in 0.2 mi North 3.5 mph - N/A   Haze
8:55 AM 46.4 °F 45.2 °F 32.0 °F 57% 30.14 in 0.5 mi NW 3.5 mph - N/A   Haze
9:15 AM 48.2 °F - 33.8 °F 58% 30.14 in 6.0 mi Calm Calm - N/A   Haze
9:35 AM 51.8 °F - 35.6 °F 54% 30.13 in 7.0 mi East 3.5 mph - N/A   Clear
9:55 AM 53.6 °F - 37.4 °F 54% 30.13 in 8.0 mi Calm Calm - N/A   Clear
10:15 AM 57.2 °F - 41.0 °F 55% 30.13 in 8.0 mi Calm Calm - N/A   Clear
10:35 AM 60.8 °F - 44.6 °F 55% 30.13 in 8.0 mi Calm Calm - N/A   Clear
10:55 AM 60.8 °F - 44.6 °F 55% 30.13 in 9.0 mi Calm Calm - N/A   Clear
11:15 AM 62.6 °F - 46.4 °F 55% 30.13 in 9.0 mi Calm Calm - N/A   Clear
11:35 AM 64.4 °F - 48.2 °F 56% 30.13 in 10.0 mi Calm Calm - N/A   Clear
11:55 AM 66.2 °F - 50.0 °F 56% 30.12 in 9.0 mi NNW 3.5 mph - N/A   Clear
12:15 PM 66.2 °F - 50.0 °F 56% 30.11 in 9.0 mi WNW 4.6 mph - N/A   Clear
12:35 PM 69.8 °F - 51.8 °F 53% 30.10 in 9.0 mi Calm Calm - N/A   Clear
12:55 PM 69.8 °F - 53.6 °F 56% 30.09 in 8.0 mi Calm Calm - N/A   Clear
1:15 PM 69.8 °F - 53.6 °F 56% 30.08 in 9.0 mi NNE 3.5 mph - N/A   Clear
1:35 PM 69.8 °F - 53.6 °F 56% 30.08 in 9.0 mi Calm Calm - N/A   Clear
1:55 PM 71.6 °F - 53.6 °F 53% 30.07 in 9.0 mi Calm Calm - N/A   Clear
2:15 PM 71.6 °F - 55.4 °F 57% 30.06 in 8.0 mi Calm Calm - N/A   Clear
2:35 PM 71.6 °F - 55.4 °F 57% 30.05 in 9.0 mi Calm Calm - N/A   Clear
2:55 PM 71.6 °F - 55.4 °F 57% 30.05 in 8.0 mi Calm Calm - N/A   Clear
3:15 PM 73.4 °F - 55.4 °F 53% 30.05 in 9.0 mi West 3.5 mph - N/A   Clear
3:35 PM 71.6 °F - 55.4 °F 57% 30.04 in 8.0 mi Calm Calm - N/A   Clear
3:55 PM 71.6 °F - 55.4 °F 57% 30.04 in 9.0 mi Calm Calm - N/A   Clear
4:15 PM 71.6 °F - 55.4 °F 57% 30.04 in 9.0 mi Calm Calm - N/A   Clear
4:35 PM 71.6 °F - 53.6 °F 53% 30.04 in 10.0 mi Calm Calm - N/A   Clear
4:55 PM 69.8 °F - 53.6 °F 56% 30.04 in 9.0 mi Calm Calm - N/A   Clear
5:15 PM 69.8 °F - 53.6 °F 56% 30.04 in 9.0 mi Calm Calm - N/A   Clear
5:35 PM 68.0 °F - 51.8 °F 56% 30.04 in 9.0 mi Calm Calm - N/A   Clear
5:55 PM 66.2 °F - 50.0 °F 56% 30.04 in 8.0 mi Calm Calm - N/A   Clear
6:15 PM 60.8 °F - 44.6 °F 55% 30.04 in 9.0 mi Calm Calm - N/A   Clear
6:35 PM 55.4 °F - 39.2 °F 54% 30.04 in 9.0 mi Calm Calm - N/A   Clear
6:55 PM 51.8 °F - 35.6 °F 54% 30.04 in 10.0 mi Calm Calm - N/A   Clear
7:15 PM 50.0 °F - 35.6 °F 58% 30.04 in 9.0 mi Calm Calm - N/A   Clear
7:35 PM 48.2 °F - 33.8 °F 58% 30.05 in 8.0 mi Calm Calm - N/A   Clear
7:55 PM 48.2 °F - 33.8 °F 58% 30.05 in 7.0 mi Calm Calm - N/A   Clear
8:15 PM 48.2 °F - 32.0 °F 54% 30.05 in 5.0 mi Calm Calm - N/A   Haze
8:35 PM 46.4 °F - 32.0 °F 57% 30.05 in 5.0 mi Calm Calm - N/A   Haze
8:55 PM 46.4 °F - 32.0 °F 57% 30.05 in 5.0 mi Calm Calm - N/A   Haze
9:15 PM 46.4 °F - 32.0 °F 57% 30.05 in 5.0 mi Calm Calm - N/A   Haze
9:35 PM 46.4 °F - 32.0 °F 57% 30.05 in 3.0 mi Calm Calm - N/A   Haze
9:55 PM 44.6 °F - 32.0 °F 61% 30.06 in 1.8 mi Calm Calm - N/A   Haze
10:15 PM 44.6 °F - 30.2 °F 57% 30.06 in 2.0 mi Calm Calm - N/A   Haze
10:35 PM 44.6 °F - 30.2 °F 57% 30.06 in 2.5 mi Calm Calm - N/A   Haze
10:55 PM 44.6 °F - 30.2 °F 57% 30.06 in 4.0 mi Calm Calm - N/A   Haze
11:15 PM 44.6 °F - 30.2 °F 57% 30.06 in 2.5 mi Calm Calm - N/A   Haze
11:35 PM 42.8 °F - 30.2 °F 61% 30.06 in 5.0 mi Calm Calm - N/A   Haze
11:55 PM 42.8 °F - 28.4 °F 57% 30.06 in 4.0 mi Calm Calm - N/A   Haze